Location: Les Jeannots
(43.2262°N, 5.5774°E)
Time: 01:28:57
(UTC+00:00)

Cosmos 2219 Rocket - Pass Details

Date: 05 July 2020
Orbit: 827 x 848 km, 71.0° (Epoch: 11 August)

Event Time Altitude Azimuth Distance (km) Brightness Sun altitude
Rises 22:12:16 0° 229° (SW) 3,355 5.1 -20.9°
Reaches altitude 10° 22:14:53 10° 238° (WSW) 2,427 4.5 -21.1°
Maximum altitude 22:19:58 36° 304° (NW) 1,301 3.6 -21.4°
Drops below altitude 10° 22:25:06 10° 10° (N) 2,450 5.5 -21.7°
Sets 22:27:46 0° 19° (NNE) 3,390 6.2 -21.9°
